Weather History for Fayetteville, AR

Change the Weather History Date:

Wednesday, November 21, 2012

  Actual Average Record
Temperature  
Mean Temperature 50 °F -  
Max Temperature 73 °F 56 °F 74 °F (1966)
Min Temperature 28 °F 34 °F 12 °F (1964)
Degree Days  
Heating Degree Days 14    
Moisture  
Dew Point 34 °F    
Average Humidity 70    
Maximum Humidity 100    
Minimum Humidity 22    
Precipitation  
Precipitation 0.00 in - - ()
Sea Level Pressure  
Sea Level Pressure 30.23 in    
Wind  
Wind Speed 1 mph (South)    
Max Wind Speed 7 mph    
Max Gust Speed -    
Visibility 9 miles    
Events      
T = Trace of Precipitation, MM = Missing Value Source: NWS Daily Summary

Daily Weather History Graph

Daily Weather History Graph

Search for Another Location

Airport:

Trip Planner

Search our weather history database for the weather conditions in past years. The results will help you decide how hot, cold, wet, or windy it might be!

Date:

Astronomy

Nov. 21, 2012 Rise Set
Actual Time 6:59 AM CST 5:05 PM CST
Civil Twilight 6:32 AM CST 5:33 PM CST
Nautical Twilight 6:00 AM CST 6:04 PM CST
Astronomical Twilight 5:30 AM CST 6:34 PM CST
Moon 1:11 PM CST (11/21) 12:31 AM CST (11/21)
Length of Visible Light 11h 01m
Length of Day
10h 05m
First Quarter, 62% of the Moon is Illuminated
Nov 21
First Quarter
Nov 28
Full
Dec 6
Last Quarter
Dec 13
New
Dec 19
First Quarter

Hourly Weather History & Observations

Time (CST) Temp. Dew Point Humidity Pressure Visibility Wind Dir Wind Speed Gust Speed Precip Events Conditions
12:53 AM 37.0 °F 35.1 °F 93% 30.25 in 10.0 mi Calm Calm - N/A   Clear
1:53 AM 36.0 °F 34.0 °F 93% 30.25 in 8.0 mi Calm Calm - N/A   Clear
2:53 AM 33.1 °F 32.0 °F 96% 30.27 in 8.0 mi Calm Calm - N/A   Clear
3:53 AM 32.0 °F 30.9 °F 96% 30.27 in 4.0 mi Calm Calm - N/A   Clear
4:53 AM 30.9 °F 30.0 °F 96% 30.27 in 7.0 mi Calm Calm - N/A   Clear
5:53 AM 32.0 °F 30.0 °F 92% 30.27 in 7.0 mi Calm Calm - N/A   Clear
6:53 AM 30.0 °F 28.9 °F 96% 30.29 in 8.0 mi Calm Calm - N/A   Clear
7:09 AM 28.4 °F 28.4 °F 100% 30.28 in 2.0 mi Calm Calm - N/A   Clear
7:17 AM 28.4 °F 28.4 °F 100% 30.28 in 8.0 mi Calm Calm - N/A   Clear
7:53 AM 32.0 °F 30.0 °F 92% 30.30 in 9.0 mi Calm Calm - N/A   Clear
8:53 AM 39.9 °F 37.0 °F 89% 30.31 in 8.0 mi Calm Calm - N/A   Clear
9:53 AM 50.0 °F 42.1 °F 74% 30.31 in 10.0 mi Calm Calm - N/A   Clear
10:53 AM 63.0 °F 43.0 °F 48% 30.28 in 10.0 mi Calm Calm - N/A   Clear
11:53 AM 70.0 °F 33.1 °F 26% 30.25 in 10.0 mi South 4.6 mph - N/A   Clear
12:53 PM 71.1 °F 32.0 °F 24% 30.21 in 10.0 mi SSE 4.6 mph - N/A   Clear
1:53 PM 73.0 °F 32.0 °F 22% 30.18 in 10.0 mi Variable 3.5 mph - N/A   Clear
2:53 PM 72.0 °F 35.1 °F 26% 30.16 in 10.0 mi South 5.8 mph - N/A   Clear
3:53 PM 70.0 °F 34.0 °F 27% 30.16 in 10.0 mi SSW 6.9 mph - N/A   Clear
4:53 PM 62.1 °F 35.1 °F 37% 30.17 in 10.0 mi South 6.9 mph - N/A   Clear
5:53 PM 61.0 °F 35.1 °F 38% 30.18 in 10.0 mi SSW 3.5 mph - N/A   Clear
6:53 PM 50.0 °F 35.1 °F 57% 30.19 in 10.0 mi Calm Calm - N/A   Clear
7:53 PM 45.0 °F 35.1 °F 68% 30.19 in 10.0 mi Calm Calm - N/A   Clear
8:53 PM 43.0 °F 35.1 °F 74% 30.18 in 10.0 mi Calm Calm - N/A   Clear
9:53 PM 42.1 °F 35.1 °F 76% 30.17 in 10.0 mi Calm Calm - N/A   Clear
10:53 PM 37.0 °F 34.0 °F 89% 30.15 in 10.0 mi Calm Calm - N/A   Clear
11:53 PM 39.0 °F 35.1 °F 86% 30.13 in 10.0 mi Calm Calm - N/A   Clear